Probability
2 1 2 4 7 9 10 10 8 5 3 2 2 2 2 2 2 3 3 1 0 0 0 0 0 0 0 0 0 0 1 2 3 3 2 3 5 6
4 4 4 6 8 9 10 11 11 8 5 4 4 3 3 2 3 3 3 2 1 0 0 0 0 0 0 0 0 0 0 1 1 1 1 2 4 4
7 7 7 8 9 10 10 11 13 13 10 7 6 5 4 3 3 3 3 2 2 1 0 0 0 0 0 0 0 0 0 0 0 0 0 1 1 2
9 9 7 8 9 10 10 10 14 16 14 10 7 6 5 4 4 3 2 3 3 2 1 0 0 0 0 0 0 0 0 0 0 0 0 0 0 0
11 10 8 8 8 9 9 11 14 15 14 10 7 6 5 5 6 4 3 4 4 3 2 1 0 0 0 0 0 0 0 0 0 0 0 0 0 0
9 9 8 7 6 6 8 10 12 13 10 8 6 5 5 6 7 7 5 5 6 5 4 2 1 1 1 1 0 0 0 0 0 0 0 0 0 0
8 7 6 5 4 4 5 7 9 9 8 5 4 4 4 6 7 8 7 7 7 6 5 4 3 3 3 2 1 0 0 0 0 0 0 0 0 0
8 7 5 4 3 2 2 3 5 6 6 5 5 4 4 5 7 7 7 7 7 7 7 6 4 4 3 2 1 0 0 0 0 0 0 0 0 0
7 5 4 3 3 2 2 2 3 3 4 6 7 6 5 6 7 7 7 7 8 9 9 7 5 4 3 2 1 1 0 0 0 0 0 0 0 0
3 2 2 1 1 2 1 2 2 2 2 4 6 6 5 6 7 7 7 7 7 8 9 9 6 4 3 3 2 2 1 0 0 0 0 0 0 0
0 0 0 0 0 0 1 2 2 1 1 2 3 4 4 4 5 5 6 6 5 5 7 9 7 5 4 4 4 3 1 0 0 0 0 0 0 0
0 0 0 0 0 0 0 1 1 1 2 2 2 3 4 3 2 3 5 6 5 4 6 8 8 7 6 5 4 3 2 1 0 0 0 0 0 0
0 1 1 0 0 0 0 0 0 1 2 2 3 3 4 4 4 4 5 6 6 5 6 7 8 8 7 5 3 2 2 1 0 0 0 0 0 0
1 1 1 0 0 0 0 0 0 0 1 1 2 3 4 5 6 6 6 6 6 6 7 7 7 8 7 6 4 3 1 1 0 0 0 0 0 0
0 1 1 0 0 0 0 0 0 0 0 0 1 1 3 6 6 6 6 6 6 6 6 7 7 8 8 7 8 6 3 1 0 0 0 0 0 0
0 0 0 0 0 0 0 0 0 0 0 0 0 1 3 5 6 6 6 6 6 6 6 7 8 8 8 8 9 8 7 4 2 0 0 0 0 0
0 0 0 0 0 0 0 0 0 0 0 0 0 2 3 4 6 6 6 6 6 6 6 7 7 7 7 6 7 7 7 5 3 1 0 0 0 0
0 0 0 0 0 0 0 0 0 0 0 0 0 1 3 4 6 6 6 6 6 6 6 6 6 5 4 4 4 4 4 4 3 1 0 0 0 0
0 0 1 1 0 0 0 0 0 0 0 0 0 1 2 3 5 6 6 6 6 6 6 6 6 4 4 4 3 2 3 4 3 1 0 0 0 0
0 0 1 2 1 0 0 0 0 0 0 0 0 0 1 2 4 5 5 5 5 6 6 6 6 4 5 5 4 2 2 3 3 2 1 0 0 0
0 0 1 2 2 1 0 0 0 0 0 0 0 0 0 0 1 2 3 3 3 5 6 6 5 4 4 4 3 3 2 1 1 1 1 0 0 0
0 0 0 1 2 1 0 0 0 0 0 0 0 0 0 0 0 0 1 1 2 3 5 5 4 3 3 3 3 3 2 0 0 0 0 0 0 0
0 0 0 0 1 1 0 0 0 0 0 0 0 0 0 0 0 0 0 1 2 3 3 4 4 3 3 3 3 3 1 0 0 0 0 0 0 0
Wind_Speed
1 1 1 1 1 1 2 2 2 2 3 2 2 2 2 2 3 3 3 4 4 4 4 4 4 4 4 4 5 4 4 4 4 5 6 6 7 8
1 1 1 2 1 1 1 2 2 3 3 2 2 3 3 3 3 3 3 5 4 4 4 4 4 4 3 3 4 4 4 4 5 5 6 7 7 7
1 1 2 2 1 2 1 2 2 2 3 3 2 2 2 3 4 3 3 3 3 3 3 3 3 3 3 3 3 3 4 4 5 5 6 6 7 7
2 2 2 2 2 2 2 2 2 3 3 4 3 2 3 3 3 3 3 3 2 3 3 3 3 2 2 3 3 3 3 4 4 4 5 5 6 7
3 3 3 2 2 2 2 2 2 2 2 3 3 2 2 2 3 3 3 2 3 3 2 2 2 2 2 2 2 2 3 4 4 4 4 5 5 6
3 3 3 3 3 3 2 2 2 2 2 2 3 2 2 2 2 2 3 2 3 3 3 2 2 2 2 2 2 2 2 3 3 4 4 4 5 5
3 3 4 4 4 3 3 2 2 2 2 2 3 3 3 2 2 2 3 3 3 2 2 2 1 1 2 2 2 2 2 3 3 3 4 4 5 5
3 3 4 4 4 4 4 4 3 3 3 3 3 3 4 3 2 2 2 3 3 1 2 3 2 2 2 2 2 3 3 2 2 2 3 3 4 5
3 3 3 3 3 3 3 4 4 5 5 4 4 5 4 3 3 3 3 3 4 3 2 3 2 3 3 3 3 3 3 3 2 2 3 3 4 5
3 3 3 3 3 3 3 3 4 4 4 4 5 5 5 4 4 4 4 4 4 3 2 3 3 3 4 3 4 4 3 3 3 3 3 3 3 4
3 3 3 4 5 4 3 4 4 5 4 4 5 5 5 5 3 2 2 2 3 3 2 2 2 3 3 3 3 4 4 4 3 4 3 3 3 4
3 3 4 4 5 4 3 4 5 5 4 4 4 4 4 4 4 4 4 3 2 3 2 2 2 1 2 2 2 2 3 3 4 4 4 4 3 2
3 3 3 4 5 5 5 5 6 5 4 4 4 4 3 3 3 3 4 4 4 4 3 2 2 2 2 3 2 2 3 2 2 2 3 3 3 3
4 3 3 3 4 5 4 5 6 4 3 3 3 3 3 3 3 3 4 4 5 6 5 4 3 3 3 3 3 3 3 3 2 2 2 2 3 4
2 3 3 4 5 3 4 4 3 2 2 3 3 4 4 4 3 3 3 3 4 4 4 4 4 4 4 4 4 3 3 3 3 2 2 2 2 2
2 2 3 3 3 3 3 3 2 2 2 3 4 4 3 3 3 2 2 2 2 3 3 3 4 4 4 4 4 4 3 3 2 2 2 3 2 2
1 1 1 2 2 2 2 3 2 2 2 2 3 3 3 3 3 2 2 2 2 3 3 2 2 3 4 4 4 4 3 3 3 2 2 3 3 3
1 0 1 2 2 3 3 3 2 3 3 3 3 3 3 3 3 2 2 2 3 3 3 3 2 2 2 3 4 4 3 3 2 2 2 3 4 3
1 1 2 2 3 3 3 3 3 3 3 3 3 3 3 3 3 3 3 3 3 4 4 3 2 2 3 4 3 3 4 3 2 2 3 3 4 4
1 2 2 3 3 3 3 3 3 3 2 3 3 3 3 3 3 3 3 3 4 4 4 3 3 3 4 4 3 4 4 3 3 3 3 3 3 3
2 2 3 3 3 3 3 3 3 3 2 2 3 3 3 3 4 4 4 4 4 4 4 4 4 4 2 2 2 3 3 3 3 3 3 2 3 2
2 2 3 3 3 3 3 3 3 3 3 2 3 3 3 4 4 4 4 4 4 4 4 4 3 2 1 2 3 3 4 3 2 2 3 3 3 3
2 2 3 3 3 3 3 3 4 3 3 3 3 3 4 4 4 4 4 4 4 3 3 3 2 2 2 2 2 3 3 3 2 2 3 3 3 3
Wind_Direction
246 238 246 262 239 229 221 215 226 276 289 290 292 306 310 299 318 307 301 308 294 283 270 260 257 260 256 252 251 252 247 245 243 242 243 243 240 234
237 233 251 265 262 250 236 229 218 226 260 271 266 291 309 318 328 311 304 317 306 296 281 271 264 261 255 252 252 250 245 243 244 240 236 232 231 233
259 244 259 262 269 270 249 234 230 221 249 274 271 290 294 309 318 312 305 303 312 309 295 288 283 273 262 254 253 254 254 252 250 244 239 234 230 229
247 249 267 269 272 274 262 254 247 232 233 268 282 287 281 298 304 310 317 314 304 314 301 296 303 305 284 260 247 247 249 253 257 257 250 242 235 229
241 240 250 249 267 268 263 263 262 256 234 252 278 278 282 307 318 322 324 314 311 314 307 300 309 318 313 282 256 251 252 252 254 255 249 244 241 233
249 245 248 241 247 252 257 256 253 258 255 259 276 285 283 296 302 312 321 321 310 312 319 314 318 319 322 305 281 276 263 257 251 244 242 242 240 236
263 259 256 253 247 247 257 251 247 251 259 268 278 285 292 300 301 296 294 306 299 294 310 308 315 317 314 299 273 275 273 262 254 247 238 236 235 231
263 271 269 270 267 263 259 249 237 241 250 252 266 274 282 280 285 288 292 304 298 295 296 294 288 288 294 295 290 279 269 266 264 258 248 238 234 230
249 259 274 279 271 262 266 270 267 261 247 237 248 258 265 266 269 277 273 273 272 281 282 283 281 281 287 287 275 269 263 259 258 256 250 240 235 230
245 243 250 270 270 257 261 274 274 270 260 245 243 253 257 254 242 254 263 277 277 268 233 263 275 279 287 283 268 259 262 264 267 268 259 242 234 228
261 255 248 256 266 261 254 268 282 285 279 269 260 262 265 262 244 234 247 259 280 275 224 250 275 288 283 273 272 265 267 267 266 262 256 251 239 226
278 271 259 256 264 260 245 255 273 281 292 303 297 287 274 267 244 220 222 235 260 269 235 234 262 287 290 279 276 282 277 266 258 255 255 254 245 224
269 275 277 277 271 264 249 247 255 266 278 280 284 286 284 274 260 242 227 222 236 250 239 217 241 245 251 282 287 277 280 282 275 270 258 253 239 217
261 271 279 290 292 284 269 262 264 266 267 275 278 280 279 277 272 263 252 244 239 248 248 227 236 241 249 265 278 279 277 277 271 275 281 269 252 237
270 281 290 295 297 292 283 281 272 260 263 271 275 276 276 278 283 281 275 264 262 261 254 239 241 247 240 248 263 267 278 279 265 270 270 262 257 245
290 300 299 300 299 296 304 300 280 257 250 264 275 281 287 289 288 290 286 287 282 287 275 258 247 238 244 250 250 260 260 260 266 268 270 271 262 251
290 320 340 347 338 328 319 305 297 289 271 269 273 282 286 287 289 293 280 281 274 285 296 302 284 268 251 246 253 259 262 266 264 264 260 270 267 257
141 291 305 305 301 300 300 303 302 299 293 283 275 273 275 276 279 280 269 264 270 271 273 280 297 307 296 269 233 249 261 267 275 266 256 258 272 275
118 284 285 286 291 291 288 288 291 293 292 289 281 275 274 273 272 273 271 267 269 272 275 273 265 256 273 290 279 231 255 273 266 260 256 255 264 271
290 279 283 287 289 290 288 286 285 288 287 290 285 277 270 267 267 267 266 269 273 275 277 279 266 252 252 268 276 282 254 255 259 263 274 281 281 281
294 287 286 286 290 289 286 281 274 274 279 281 282 282 275 268 265 266 266 268 266 266 271 277 277 272 272 256 271 287 290 262 249 254 263 270 283 282
301 297 299 301 301 296 290 284 277 275 275 276 278 279 280 273 267 264 260 261 261 264 271 282 288 282 257 251 272 288 302 315 315 294 266 256 250 247
303 303 305 305 305 303 298 294 287 282 279 278 277 276 277 275 271 265 261 257 258 264 277 286 293 288 282 263 270 282 292 308 319 326 329 326 276 261